| time (UTC) | temp F | wind direction | speed MPH | gust MPH | rain 1hr in | rain 24hr in | rain mn in | humidity % | barometer mb |
| 20260505022240 | 60 | 75 | 0.0 | 0.0 | 0.00 | 0.00 | 0.00 | 60 | 1009.1 |
| 20260505022103 | 60 | 99 | 2.0 | 3.0 | 0.00 | 0.00 | 0.00 | 62 | 1007.9 |
| 20260505022019 | 60 | 75 | 0.0 | 0.0 | 0.00 | 0.00 | 0.00 | 59 | 1009.2 |
| 20260505021559 | 60 | 84 | 2.0 | 2.0 | 0.00 | 0.00 | 0.00 | 63 | 1008.0 |
| 20260505021233 | 59 | 75 | 0.0 | 0.0 | 0.00 | 0.00 | 0.00 | 59 | 1009.3 |
| 20260505021056 | 60 | 117 | 2.0 | 2.0 | 0.00 | 0.00 | 0.00 | 62 | 1007.9 |
| 20260505020727 | 59 | 75 | 0.0 | 0.0 | 0.00 | 0.00 | 0.00 | 59 | 1009.3 |
| 20260505020556 | 59 | 123 | 0.0 | 3.0 | 0.00 | 0.00 | 0.00 | 65 | 1007.9 |
| 20260505020225 | 59 | 75 | 0.0 | 0.0 | 0.00 | 0.00 | 0.00 | 60 | 1009.3 |
| 20260505020053 | 59 | 102 | 2.0 | 2.0 | 0.00 | 0.00 | 0.00 | 64 | 1008.2 |
| 20260505015724 | 59 | 75 | 0.0 | 0.0 | 0.00 | 0.00 | 0.00 | 60 | 1009.4 |
| 20260505015550 | 59 | 67 | 2.0 | 3.0 | 0.00 | 0.00 | 0.00 | 65 | 1008.2 |
| 20260505015224 | 59 | 75 | 0.0 | 0.0 | 0.00 | 0.00 | 0.00 | 60 | 1009.3 |
| 20260505015047 | 59 | 94 | 2.0 | 2.0 | 0.00 | 0.00 | 0.00 | 64 | 1008.2 |
| 20260505014723 | 59 | 74 | 0.0 | 0.0 | 0.00 | 0.00 | 0.00 | 58 | 1009.3 |
| 20260505014544 | 59 | 106 | 2.0 | 2.0 | 0.00 | 0.00 | 0.00 | 64 | 1008.1 |
| 20260505014215 | 60 | 74 | 0.0 | 0.0 | 0.00 | 0.00 | 0.00 | 59 | 1009.2 |
| 20260505014041 | 59 | 82 | 0.0 | 2.0 | 0.00 | 0.00 | 0.00 | 63 | 1008.1 |
| 20260505013713 | 60 | 74 | 0.0 | 0.0 | 0.00 | 0.00 | 0.00 | 57 | 1009.3 |
| 20260505013538 | 59 | 84 | 1.0 | 2.0 | 0.00 | 0.00 | 0.00 | 64 | 1007.9 |
| 20260505013213 | 60 | 74 | 0.0 | 0.0 | 0.00 | 0.00 | 0.00 | 57 | 1009.2 |
| 20260505013036 | 60 | 99 | 0.0 | 1.0 | 0.00 | 0.00 | 0.00 | 62 | 1007.9 |
| 20260505012712 | 61 | 74 | 0.0 | 0.0 | 0.00 | 0.00 | 0.00 | 57 | 1009.1 |
| 20260505012534 | 60 | 96 | 2.0 | 2.0 | 0.00 | 0.00 | 0.00 | 60 | 1008.2 |
| 20260505012212 | 61 | 74 | 0.0 | 0.0 | 0.00 | 0.00 | 0.00 | 56 | 1009.1 |
| 20260505012034 | 62 | 74 | 0.0 | 0.0 | 0.00 | 0.00 | 0.00 | 55 | 1009.0 |
| 20260505012030 | 60 | 74 | 1.0 | 2.0 | 0.00 | 0.00 | 0.00 | 59 | 1008.0 |
| 20260505011740 | 61 | 74 | 0.0 | 0.0 | 0.00 | 0.00 | 0.00 | 53 | 1009.0 |
| 20260505011526 | 61 | 90 | 1.0 | 2.0 | 0.00 | 0.00 | 0.00 | 58 | 1007.7 |
| 20260505011023 | 61 | 74 | 1.0 | 2.0 | 0.00 | 0.00 | 0.00 | 57 | 1007.9 |
| 20260505010951 | 62 | 74 | 0.0 | 0.0 | 0.00 | 0.00 | 0.00 | 52 | 1009.0 |
| 20260505010518 | 61 | 69 | 0.0 | 2.0 | 0.00 | 0.00 | 0.00 | 57 | 1007.8 |
| 20260505010205 | 62 | 74 | 0.0 | 0.0 | 0.00 | 0.00 | 0.00 | 52 | 1008.9 |
| 20260505010015 | 61 | 100 | 2.0 | 2.0 | 0.00 | 0.00 | 0.00 | 58 | 1007.6 |
| 20260505005707 | 62 | 74 | 0.0 | 0.0 | 0.00 | 0.00 | 0.00 | 52 | 1008.9 |
| 20260505005512 | 62 | 84 | 2.0 | 2.0 | 0.00 | 0.00 | 0.00 | 56 | 1007.5 |
| 20260505005204 | 63 | 55 | 0.0 | 0.0 | 0.00 | 0.00 | 0.00 | 51 | 1008.8 |
| 20260505005009 | 62 | 66 | 0.0 | 3.0 | 0.00 | 0.00 | 0.00 | 56 | 1007.7 |
| 20260505004704 | 63 | 71 | 0.0 | 0.0 | 0.00 | 0.00 | 0.00 | 50 | 1008.9 |
| 20260505004506 | 62 | 74 | 0.0 | 2.0 | 0.00 | 0.00 | 0.00 | 56 | 1007.5 |
| 20260505004453 | 63 | 71 | 0.0 | 0.0 | 0.00 | 0.00 | 0.00 | 49 | 1008.8 |
| 20260505004003 | 62 | 81 | 0.0 | 2.0 | 0.00 | 0.00 | 0.00 | 54 | 1007.5 |
| 20260505003700 | 64 | 71 | 0.0 | 0.0 | 0.00 | 0.00 | 0.00 | 50 | 1008.7 |
| 20260505003500 | 63 | 90 | 0.0 | 0.0 | 0.00 | 0.00 | 0.00 | 56 | 1007.7 |
| 20260505003159 | 64 | 157 | 0.0 | 0.0 | 0.00 | 0.00 | 0.00 | 50 | 1008.7 |
| 20260505002956 | 64 | 81 | 0.0 | 2.0 | 0.00 | 0.00 | 0.00 | 55 | 1007.5 |
| 20260505002657 | 64 | 157 | 0.0 | 0.0 | 0.00 | 0.00 | 0.00 | 50 | 1008.6 |
| 20260505002452 | 64 | 80 | 0.0 | 3.0 | 0.00 | 0.00 | 0.00 | 54 | 1007.4 |
| 20260505002147 | 65 | 157 | 0.0 | 0.0 | 0.00 | 0.00 | 0.00 | 48 | 1008.5 |
| 20260505001951 | 64 | 125 | 2.0 | 3.0 | 0.00 | 0.00 | 0.00 | 51 | 1007.2 |
| 20260505001645 | 65 | 157 | 0.0 | 0.0 | 0.00 | 0.00 | 0.00 | 46 | 1008.6 |
| 20260505001448 | 65 | 151 | 3.0 | 3.0 | 0.00 | 0.00 | 0.00 | 51 | 1007.0 |
| 20260505001144 | 65 | 157 | 0.0 | 0.0 | 0.00 | 0.00 | 0.00 | 47 | 1008.6 |
| 20260505000945 | 65 | 135 | 2.0 | 3.0 | 0.00 | 0.00 | 0.00 | 50 | 1007.0 |
| 20260505000645 | 66 | 157 | 0.0 | 0.0 | 0.00 | 0.00 | 0.00 | 47 | 1008.6 |
| 20260505000443 | 66 | 159 | 2.0 | 3.0 | 0.00 | 0.00 | 0.00 | 49 | 1007.4 |
| 20260505000145 | 66 | 157 | 0.0 | 0.0 | 0.00 | 0.00 | 0.00 | 45 | 1008.6 |
| 20260504235940 | 66 | 172 | 0.0 | 2.0 | 0.00 | 0.00 | 0.00 | 48 | 1007.4 |
| 20260504235643 | 66 | 166 | 0.0 | 0.0 | 0.00 | 0.00 | 0.00 | 45 | 1008.5 |
| 20260504235437 | 66 | 180 | 0.0 | 2.0 | 0.00 | 0.00 | 0.00 | 48 | 1007.3 |
| 20260504235140 | 66 | 166 | 0.0 | 0.0 | 0.00 | 0.00 | 0.00 | 46 | 1008.5 |
| 20260504234933 | 66 | 158 | 2.0 | 2.0 | 0.00 | 0.00 | 0.00 | 48 | 1007.2 |
| 20260504234640 | 66 | 166 | 0.0 | 0.0 | 0.00 | 0.00 | 0.00 | 46 | 1008.5 |
| 20260504234431 | 66 | 131 | 2.0 | 4.0 | 0.00 | 0.00 | 0.00 | 48 | 1007.1 |
| 20260504234426 | 67 | 129 | 0.0 | 0.0 | 0.00 | 0.00 | 0.00 | 44 | 1008.5 |
| 20260504233927 | 67 | 157 | 0.0 | 3.0 | 0.00 | 0.00 | 0.00 | 47 | 1006.9 |
| 20260504233640 | 67 | 129 | 0.0 | 0.0 | 0.00 | 0.00 | 0.00 | 45 | 1008.4 |
| 20260504233424 | 67 | 125 | 0.0 | 0.0 | 0.00 | 0.00 | 0.00 | 45 | 1008.4 |
| 20260504232920 | 67 | 161 | 2.0 | 4.0 | 0.00 | 0.00 | 0.00 | 47 | 1007.1 |
| 20260504232623 | 67 | 144 | 0.0 | 0.0 | 0.00 | 0.00 | 0.00 | 43 | 1008.4 |
| 20260504232417 | 68 | 172 | 2.0 | 5.0 | 0.00 | 0.00 | 0.00 | 46 | 1007.1 |
| 20260504232148 | 67 | 124 | 0.0 | 0.0 | 0.00 | 0.00 | 0.00 | 43 | 1008.4 |
| 20260504232133 | 67 | 154 | 0.0 | 0.0 | 0.00 | 0.00 | 0.00 | 43 | 1008.4 |
| 20260504231914 | 68 | 121 | 2.0 | 3.0 | 0.00 | 0.00 | 0.00 | 45 | 1007.3 |
| 20260504231410 | 68 | 144 | 3.0 | 5.0 | 0.00 | 0.00 | 0.00 | 45 | 1007.3 |
| 20260504231109 | 67 | 161 | 0.0 | 0.0 | 0.00 | 0.00 | 0.00 | 42 | 1008.5 |
| 20260504230907 | 68 | 150 | 2.0 | 3.0 | 0.00 | 0.00 | 0.00 | 45 | 1007.1 |
| 20260504230606 | 67 | 123 | 0.0 | 0.0 | 0.00 | 0.00 | 0.00 | 43 | 1008.5 |
| 20260504230404 | 68 | 153 | 3.0 | 5.0 | 0.00 | 0.00 | 0.00 | 46 | 1007.0 |
| 20260504230111 | 68 | 140 | 0.0 | 0.0 | 0.00 | 0.00 | 0.00 | 42 | 1008.5 |
| 20260504225903 | 68 | 194 | 2.0 | 3.0 | 0.00 | 0.00 | 0.00 | 45 | 1007.2 |
| 20260504225606 | 68 | 144 | 0.0 | 0.0 | 0.00 | 0.00 | 0.00 | 42 | 1008.5 |
| 20260504225359 | 68 | 127 | 2.0 | 3.0 | 0.00 | 0.00 | 0.00 | 45 | 1007.1 |
| 20260504225051 | 68 | 159 | 0.0 | 0.0 | 0.00 | 0.00 | 0.00 | 42 | 1008.5 |
| 20260504224856 | 68 | 180 | 3.0 | 6.0 | 0.00 | 0.00 | 0.00 | 45 | 1007.2 |
| 20260504224544 | 68 | 115 | 0.0 | 0.0 | 0.00 | 0.00 | 0.00 | 42 | 1008.5 |
| 20260504224353 | 68 | 148 | 3.0 | 3.0 | 0.00 | 0.00 | 0.00 | 45 | 1007.2 |
| 20260504224044 | 68 | 146 | 0.0 | 0.0 | 0.00 | 0.00 | 0.00 | 42 | 1008.5 |
| 20260504223850 | 68 | 180 | 5.0 | 5.0 | 0.00 | 0.00 | 0.00 | 45 | 1007.1 |
| 20260504223544 | 68 | 136 | 0.0 | 0.0 | 0.00 | 0.00 | 0.00 | 42 | 1008.5 |
| 20260504223345 | 69 | 119 | 2.0 | 5.0 | 0.00 | 0.00 | 0.00 | 44 | 1006.9 |
| 20260504223043 | 69 | 132 | 0.0 | 0.0 | 0.00 | 0.00 | 0.00 | 42 | 1008.5 |
| 20260504222842 | 69 | 171 | 3.0 | 4.0 | 0.00 | 0.00 | 0.00 | 44 | 1007.2 |
| 20260504222541 | 69 | 119 | 0.0 | 0.0 | 0.00 | 0.00 | 0.00 | 41 | 1008.5 |
| 20260504222338 | 69 | 151 | 4.0 | 4.0 | 0.00 | 0.00 | 0.00 | 44 | 1007.2 |
| 20260504222331 | 69 | 147 | 0.0 | 0.0 | 0.00 | 0.00 | 0.00 | 41 | 1008.6 |
| 20260504221837 | 69 | 201 | 3.0 | 4.0 | 0.00 | 0.00 | 0.00 | 42 | 1007.0 |
| 20260504221537 | 69 | 154 | 0.0 | 0.0 | 0.00 | 0.00 | 0.00 | 40 | 1008.6 |
| 20260504221333 | 69 | 112 | 2.0 | 5.0 | 0.00 | 0.00 | 0.00 | 43 | 1006.9 |
| 20260504221316 | 69 | 177 | 0.0 | 0.0 | 0.00 | 0.00 | 0.00 | 41 | 1008.6 |
| 20260504220831 | 69 | 166 | 4.0 | 5.0 | 0.00 | 0.00 | 0.00 | 43 | 1007.1 |
| 20260504220521 | 69 | 150 | 0.0 | 0.0 | 0.00 | 0.00 | 0.00 | 40 | 1008.6 |
| 20260504220327 | 69 | 188 | 6.0 | 7.0 | 0.00 | 0.00 | 0.00 | 42 | 1007.0 |
| 20260504220009 | 69 | 155 | 0.0 | 0.0 | 0.00 | 0.00 | 0.00 | 40 | 1008.6 |
| 20260504215825 | 69 | 152 | 5.0 | 5.0 | 0.00 | 0.00 | 0.00 | 41 | 1007.0 |
| 20260504215509 | 69 | 149 | 0.0 | 0.0 | 0.00 | 0.00 | 0.00 | 39 | 1008.6 |
| 20260504215321 | 69 | 199 | 2.0 | 5.0 | 0.00 | 0.00 | 0.00 | 42 | 1007.3 |
| 20260504215007 | 69 | 140 | 0.0 | 0.0 | 0.00 | 0.00 | 0.00 | 39 | 1008.7 |
| 20260504214817 | 69 | 169 | 6.0 | 8.0 | 0.00 | 0.00 | 0.00 | 41 | 1007.4 |
| 20260504214505 | 69 | 145 | 0.0 | 0.0 | 0.00 | 0.00 | 0.00 | 39 | 1008.6 |
| 20260504214314 | 69 | 176 | 2.0 | 5.0 | 0.00 | 0.00 | 0.00 | 42 | 1007.0 |
| 20260504214003 | 69 | 138 | 0.0 | 0.0 | 0.00 | 0.00 | 0.00 | 39 | 1008.6 |
| 20260504213811 | 69 | 188 | 2.0 | 6.0 | 0.00 | 0.00 | 0.00 | 41 | 1007.2 |
| 20260504213748 | 69 | 162 | 0.0 | 0.0 | 0.00 | 0.00 | 0.00 | 39 | 1008.7 |
| 20260504213307 | 70 | 140 | 4.0 | 6.0 | 0.00 | 0.00 | 0.00 | 41 | 1007.2 |
| 20260504212958 | 69 | 177 | 0.0 | 0.0 | 0.00 | 0.00 | 0.00 | 38 | 1008.6 |
| 20260504212804 | 70 | 173 | 4.0 | 7.0 | 0.00 | 0.00 | 0.00 | 40 | 1007.3 |
| 20260504212456 | 69 | 162 | 0.0 | 0.0 | 0.00 | 0.00 | 0.00 | 39 | 1008.7 |
| 20260504212300 | 70 | 162 | 4.0 | 6.0 | 0.00 | 0.00 | 0.00 | 41 | 1007.3 |
| 20260504211947 | 70 | 169 | 0.0 | 0.0 | 0.00 | 0.00 | 0.00 | 39 | 1008.6 |
| 20260504211758 | 70 | 159 | 2.0 | 3.0 | 0.00 | 0.00 | 0.00 | 42 | 1007.1 |
| 20260504211433 | 70 | 157 | 0.0 | 0.0 | 0.00 | 0.00 | 0.00 | 39 | 1008.6 |
| 20260504211254 | 70 | 149 | 5.0 | 6.0 | 0.00 | 0.00 | 0.00 | 40 | 1007.2 |
| 20260504210933 | 70 | 162 | 0.0 | 0.0 | 0.00 | 0.00 | 0.00 | 37 | 1008.6 |
| 20260504210752 | 70 | 194 | 3.0 | 7.0 | 0.00 | 0.00 | 0.00 | 41 | 1007.2 |
| 20260504210431 | 70 | 113 | 0.0 | 0.0 | 0.00 | 0.00 | 0.00 | 38 | 1008.6 |
| 20260504210249 | 70 | 128 | 5.0 | 5.0 | 0.00 | 0.00 | 0.00 | 41 | 1007.2 |
| 20260504210215 | 70 | 158 | 0.0 | 0.0 | 0.00 | 0.00 | 0.00 | 38 | 1008.6 |
| 20260504205746 | 70 | 161 | 4.0 | 5.0 | 0.00 | 0.00 | 0.00 | 39 | 1007.1 |
| 20260504205431 | 70 | 153 | 0.0 | 0.0 | 0.00 | 0.00 | 0.00 | 38 | 1008.6 |
| 20260504205243 | 70 | 205 | 3.0 | 6.0 | 0.00 | 0.00 | 0.00 | 39 | 1007.3 |
| 20260504205222 | 70 | 173 | 0.0 | 0.0 | 0.00 | 0.00 | 0.00 | 38 | 1008.6 |
| 20260504204741 | 70 | 180 | 2.0 | 5.0 | 0.00 | 0.00 | 0.00 | 40 | 1007.4 |
| 20260504204716 | 70 | 159 | 0.0 | 0.0 | 0.00 | 0.00 | 0.00 | 39 | 1008.6 |
| 20260504204239 | 71 | 118 | 4.0 | 4.0 | 0.00 | 0.00 | 0.00 | 42 | 1007.0 |
| 20260504203930 | 70 | 121 | 0.0 | 0.0 | 0.00 | 0.00 | 0.00 | 39 | 1008.6 |
| 20260504203738 | 70 | 180 | 2.0 | 5.0 | 0.00 | 0.00 | 0.00 | 41 | 1007.2 |
| 20260504203429 | 70 | 208 | 0.0 | 0.0 | 0.00 | 0.00 | 0.00 | 39 | 1008.6 |
| 20260504203235 | 70 | 194 | 3.0 | 5.0 | 0.00 | 0.00 | 0.00 | 40 | 1007.2 |
| 20260504202921 | 69 | 172 | 0.0 | 0.0 | 0.00 | 0.00 | 0.00 | 40 | 1008.7 |
| 20260504202735 | 70 | 139 | 4.0 | 5.0 | 0.00 | 0.00 | 0.00 | 41 | 1007.4 |
| 20260504202417 | 69 | 161 | 0.0 | 0.0 | 0.00 | 0.00 | 0.00 | 41 | 1008.7 |
| 20260504202233 | 70 | 157 | 4.0 | 6.0 | 0.00 | 0.00 | 0.00 | 43 | 1007.3 |
| 20260504201918 | 69 | 122 | 0.0 | 0.0 | 0.00 | 0.00 | 0.00 | 40 | 1008.8 |
| 20260504201730 | 70 | 183 | 3.0 | 5.0 | 0.00 | 0.00 | 0.00 | 41 | 1007.3 |
| 20260504201419 | 69 | 149 | 0.0 | 0.0 | 0.00 | 0.00 | 0.00 | 41 | 1008.9 |
| 20260504201227 | 70 | 180 | 6.0 | 6.0 | 0.00 | 0.00 | 0.00 | 43 | 1007.4 |
| 20260504200918 | 69 | 253 | 0.0 | 0.0 | 0.00 | 0.00 | 0.00 | 39 | 1008.9 |
| 20260504200725 | 69 | 139 | 4.0 | 7.0 | 0.00 | 0.00 | 0.00 | 42 | 1007.4 |
| 20260504200418 | 69 | 145 | 0.0 | 0.0 | 0.00 | 0.00 | 0.00 | 41 | 1009.0 |
| 20260504200220 | 70 | 225 | 3.0 | 5.0 | 0.00 | 0.00 | 0.00 | 42 | 1007.7 |
| 20260504195917 | 69 | 117 | 0.0 | 0.0 | 0.00 | 0.00 | 0.00 | 42 | 1009.1 |
| 20260504195717 | 69 | 169 | 0.0 | 4.0 | 0.00 | 0.00 | 0.00 | 44 | 1007.6 |
| 20260504195359 | 69 | 154 | 0.0 | 0.0 | 0.00 | 0.00 | 0.00 | 40 | 1009.2 |
| 20260504195213 | 69 | 170 | 4.0 | 5.0 | 0.00 | 0.00 | 0.00 | 43 | 1007.7 |
| 20260504195130 | 69 | 170 | 0.0 | 0.0 | 0.00 | 0.00 | 0.00 | 42 | 1009.2 |
| 20260504194710 | 69 | 157 | 3.0 | 9.0 | 0.00 | 0.00 | 0.00 | 42 | 1007.9 |
| 20260504194349 | 69 | 148 | 0.0 | 0.0 | 0.00 | 0.00 | 0.00 | 40 | 1009.2 |
| 20260504194206 | 69 | 121 | 4.0 | 6.0 | 0.00 | 0.00 | 0.00 | 43 | 1007.8 |
| 20260504193847 | 70 | 167 | 0.0 | 0.0 | 0.00 | 0.00 | 0.00 | 40 | 1009.3 |
| 20260504193703 | 69 | 168 | 3.0 | 5.0 | 0.00 | 0.00 | 0.00 | 42 | 1008.1 |
| 20260504193348 | 70 | 180 | 0.0 | 0.0 | 0.00 | 0.00 | 0.00 | 39 | 1009.3 |
| 20260504193200 | 69 | 257 | 1.0 | 4.0 | 0.00 | 0.00 | 0.00 | 40 | 1008.1 |
| 20260504192847 | 70 | 178 | 0.0 | 0.0 | 0.00 | 0.00 | 0.00 | 37 | 1009.3 |
| 20260504192658 | 70 | 230 | 3.0 | 5.0 | 0.00 | 0.00 | 0.00 | 41 | 1008.1 |
| 20260504192423 | 70 | 161 | 0.0 | 0.0 | 0.00 | 0.00 | 0.00 | 39 | 1009.5 |
| 20260504192414 | 70 | 194 | 0.0 | 0.0 | 0.00 | 0.00 | 0.00 | 39 | 1009.4 |
| 20260504192156 | 70 | 193 | 3.0 | 7.0 | 0.00 | 0.00 | 0.00 | 41 | 1007.9 |
| 20260504191654 | 70 | 114 | 0.0 | 4.0 | 0.00 | 0.00 | 0.00 | 43 | 1008.0 |
| 20260504191345 | 70 | 158 | 0.0 | 0.0 | 0.00 | 0.00 | 0.00 | 39 | 1009.6 |
| 20260504191150 | 70 | 169 | 2.0 | 6.0 | 0.00 | 0.00 | 0.00 | 43 | 1008.2 |
| 20260504190839 | 70 | 187 | 0.0 | 0.0 | 0.00 | 0.00 | 0.00 | 38 | 1009.6 |
| 20260504190646 | 70 | 232 | 4.0 | 10.0 | 0.00 | 0.00 | 0.00 | 41 | 1008.4 |
| 20260504190341 | 70 | 126 | 0.0 | 0.0 | 0.00 | 0.00 | 0.00 | 40 | 1009.7 |
| 20260504190143 | 70 | 127 | 2.0 | 2.0 | 0.00 | 0.00 | 0.00 | 42 | 1008.2 |
| 20260504185839 | 70 | 170 | 0.0 | 0.0 | 0.00 | 0.00 | 0.00 | 38 | 1009.8 |
| 20260504185639 | 70 | 143 | 6.0 | 6.0 | 0.00 | 0.00 | 0.00 | 41 | 1008.3 |
| 20260504185619 | 70 | 137 | 0.0 | 0.0 | 0.00 | 0.00 | 0.00 | 38 | 1009.8 |
| 20260504185136 | 70 | 158 | 3.0 | 5.0 | 0.00 | 0.00 | 0.00 | 42 | 1008.3 |
| 20260504184837 | 70 | 130 | 0.0 | 0.0 | 0.00 | 0.00 | 0.00 | 37 | 1009.8 |
| 20260504184632 | 70 | 355 | 1.0 | 7.0 | 0.00 | 0.00 | 0.00 | 41 | 1008.5 |
| 20260504184338 | 70 | 168 | 0.0 | 0.0 | 0.00 | 0.00 | 0.00 | 37 | 1009.9 |
| 20260504184127 | 70 | 155 | 3.0 | 6.0 | 0.00 | 0.00 | 0.00 | 44 | 1008.3 |
| 20260504183625 | 70 | 190 | 4.0 | 7.0 | 0.00 | 0.00 | 0.00 | 43 | 1008.4 |
| 20260504183614 | 69 | 175 | 0.0 | 0.0 | 0.00 | 0.00 | 0.00 | 40 | 1009.9 |
| 20260504183122 | 69 | 128 | 4.0 | 7.0 | 0.00 | 0.00 | 0.00 | 41 | 1008.7 |
| 20260504183102 | 69 | 123 | 0.0 | 0.0 | 0.00 | 0.00 | 0.00 | 37 | 1009.9 |
| 20260504182620 | 70 | 153 | 9.0 | 9.0 | 0.00 | 0.00 | 0.00 | 42 | 1008.7 |
| 20260504182315 | 69 | 129 | 0.0 | 0.0 | 0.00 | 0.00 | 0.00 | 36 | 1010.0 |
| 20260504182117 | 70 | 195 | 2.0 | 5.0 | 0.00 | 0.00 | 0.00 | 42 | 1008.8 |
| 20260504181816 | 69 | 173 | 0.0 | 0.0 | 0.00 | 0.00 | 0.00 | 36 | 1010.1 |
| 20260504181614 | 69 | 245 | 6.0 | 6.0 | 0.00 | 0.00 | 0.00 | 40 | 1008.5 |
| 20260504181317 | 70 | 180 | 0.0 | 0.0 | 0.00 | 0.00 | 0.00 | 36 | 1010.2 |
| 20260504181112 | 69 | 339 | 3.0 | 5.0 | 0.00 | 0.00 | 0.00 | 40 | 1008.7 |
| 20260504180814 | 70 | 194 | 0.0 | 0.0 | 0.00 | 0.00 | 0.00 | 36 | 1010.2 |
| 20260504180611 | 69 | 237 | 3.0 | 6.0 | 0.00 | 0.00 | 0.00 | 40 | 1008.9 |
| 20260504180313 | 69 | 140 | 0.0 | 0.0 | 0.00 | 0.00 | 0.00 | 40 | 1010.4 |
| 20260504180109 | 69 | 228 | 2.0 | 5.0 | 0.00 | 0.00 | 0.00 | 39 | 1009.1 |
| 20260504175815 | 69 | 167 | 0.0 | 0.0 | 0.00 | 0.00 | 0.00 | 38 | 1010.5 |
| 20260504175606 | 69 | 212 | 2.0 | 5.0 | 0.00 | 0.00 | 0.00 | 42 | 1009.0 |
| 20260504175312 | 69 | 170 | 0.0 | 0.0 | 0.00 | 0.00 | 0.00 | 38 | 1010.6 |
| 20260504175103 | 68 | 270 | 2.0 | 4.0 | 0.00 | 0.00 | 0.00 | 41 | 1009.2 |
| 20260504174810 | 68 | 184 | 0.0 | 0.0 | 0.00 | 0.00 | 0.00 | 37 | 1010.7 |
| 20260504174601 | 69 | 190 | 4.0 | 6.0 | 0.00 | 0.00 | 0.00 | 40 | 1009.2 |
| 20260504174302 | 69 | 169 | 0.0 | 0.0 | 0.00 | 0.00 | 0.00 | 41 | 1010.6 |
| 20260504174057 | 69 | 185 | 3.0 | 6.0 | 0.00 | 0.00 | 0.00 | 41 | 1009.1 |
| 20260504173802 | 70 | 173 | 0.0 | 0.0 | 0.00 | 0.00 | 0.00 | 38 | 1010.8 |
| 20260504173554 | 69 | 250 | 3.0 | 4.0 | 0.00 | 0.00 | 0.00 | 40 | 1009.4 |
| 20260504173302 | 70 | 211 | 0.0 | 0.0 | 0.00 | 0.00 | 0.00 | 37 | 1010.8 |
| 20260504173052 | 70 | 303 | 3.0 | 5.0 | 0.00 | 0.00 | 0.00 | 40 | 1009.4 |
| 20260504172759 | 69 | 284 | 0.0 | 0.0 | 0.00 | 0.00 | 0.00 | 41 | 1010.8 |
| 20260504172547 | 68 | 183 | 5.0 | 7.0 | 0.00 | 0.00 | 0.00 | 40 | 1009.5 |
| 20260504172257 | 69 | 200 | 0.0 | 0.0 | 0.00 | 0.00 | 0.00 | 37 | 1010.9 |
| 20260504172044 | 68 | 246 | 5.0 | 6.0 | 0.00 | 0.00 | 0.00 | 42 | 1009.2 |
| 20260504171757 | 67 | 142 | 0.0 | 0.0 | 0.00 | 0.00 | 0.00 | 41 | 1010.9 |
| 20260504171541 | 68 | 118 | 4.0 | 5.0 | 0.00 | 0.00 | 0.00 | 41 | 1009.4 |
| 20260504171258 | 68 | 159 | 0.0 | 0.0 | 0.00 | 0.00 | 0.00 | 38 | 1011.1 |
| 20260504171038 | 68 | 180 | 2.0 | 5.0 | 0.00 | 0.00 | 0.00 | 41 | 1009.6 |
| 20260504170756 | 67 | 199 | 0.0 | 0.0 | 0.00 | 0.00 | 0.00 | 38 | 1011.2 |
| 20260504170534 | 67 | 189 | 4.0 | 5.0 | 0.00 | 0.00 | 0.00 | 41 | 1009.7 |
| 20260504170242 | 67 | 124 | 0.0 | 0.0 | 0.00 | 0.00 | 0.00 | 42 | 1011.2 |
| 20260504150918 | 64 | 258 | 0.0 | 4.0 | 0.00 | 0.00 | 0.00 | 44 | 1010.8 |
| 20260504150729 | 64 | 196 | 0.0 | 0.0 | 0.00 | 0.00 | 0.00 | 40 | 1012.6 |
| 20260504150415 | 64 | 216 | 2.0 | 3.0 | 0.00 | 0.00 | 0.00 | 43 | 1011.0 |
| 20260504150157 | 64 | 185 | 0.0 | 0.0 | 0.00 | 0.00 | 0.00 | 40 | 1012.7 |
| 20260504141150 | 62 | 189 | 0.0 | 0.0 | 0.00 | 0.00 | 0.00 | 46 | 1012.8 |
| 20260504140841 | 60 | 228 | 2.0 | 5.0 | 0.00 | 0.00 | 0.00 | 53 | 1011.1 |
| 20260504140651 | 61 | 173 | 0.0 | 0.0 | 0.00 | 0.00 | 0.00 | 49 | 1012.8 |
| 20260504140337 | 61 | 158 | 2.0 | 3.0 | 0.00 | 0.00 | 0.00 | 58 | 1010.9 |
| 20260504140151 | 60 | 169 | 0.0 | 0.0 | 0.00 | 0.00 | 0.00 | 52 | 1012.7 |
| 20260504130806 | 55 | 182 | 3.0 | 6.0 | 0.00 | 0.00 | 0.00 | 65 | 1011.4 |
| 20260504130644 | 55 | 166 | 0.0 | 0.0 | 0.00 | 0.00 | 0.00 | 59 | 1013.1 |
| 20260504130431 | 55 | 200 | 0.0 | 0.0 | 0.00 | 0.00 | 0.00 | 59 | 1013.1 |
| 20260504130302 | 54 | 192 | 2.0 | 5.0 | 0.00 | 0.00 | 0.00 | 65 | 1011.3 |
| 20260504120225 | 52 | 225 | 4.0 | 4.0 | 0.00 | 0.00 | 0.00 | 71 | 1011.3 |
| 20260504120135 | 51 | 201 | 0.0 | 0.0 | 0.00 | 0.00 | 0.00 | 68 | 1013.1 |
| 20260504110653 | 48 | 123 | 1.0 | 2.0 | 0.00 | 0.00 | 0.00 | 69 | 1011.4 |
| 20260504110552 | 46 | 200 | 0.0 | 0.0 | 0.00 | 0.00 | 0.00 | 68 | 1013.5 |
| 20260504110149 | 47 | 114 | 1.0 | 2.0 | 0.00 | 0.00 | 0.00 | 69 | 1011.5 |
| 20260504110104 | 45 | 183 | 0.0 | 0.0 | 0.00 | 0.00 | 0.00 | 68 | 1013.4 |
| 20260504100615 | 40 | 24 | 2.0 | 3.0 | 0.00 | 0.00 | 0.00 | 86 | 1011.6 |
| 20260504100445 | 39 | 245 | 0.0 | 0.0 | 0.00 | 0.00 | 0.00 | 81 | 1013.6 |
| 20260504100113 | 40 | 84 | 1.0 | 2.0 | 0.00 | 0.00 | 0.00 | 88 | 1011.7 |
| 20260504081820 | 39 | 234 | 0.0 | 0.0 | 0.00 | 0.00 | 0.00 | 82 | 1013.5 |
| 20260504081600 | 39 | 234 | 0.0 | 0.0 | 0.00 | 0.00 | 0.00 | 82 | 1013.6 |
| 20260504081506 | 39 | 68 | 0.0 | 2.0 | 0.00 | 0.00 | 0.00 | 88 | 1011.6 |
| 20260504081109 | 39 | 234 | 0.0 | 0.0 | 0.00 | 0.00 | 0.00 | 81 | 1013.6 |
| 20260504081002 | 39 | 90 | 1.0 | 2.0 | 0.00 | 0.00 | 0.00 | 86 | 1011.4 |
| 20260504080603 | 39 | 234 | 0.0 | 0.0 | 0.00 | 0.00 | 0.00 | 81 | 1013.5 |
| 20260504080458 | 39 | 90 | 0.0 | 2.0 | 0.00 | 0.00 | 0.00 | 87 | 1011.6 |
| 20260504070310 | 39 | 234 | 0.0 | 0.0 | 0.00 | 0.00 | 0.00 | 79 | 1013.5 |
| 20260504050707 | 39 | 233 | 0.0 | 0.0 | 0.00 | 0.00 | 0.00 | 80 | 1013.6 |
| 20260504050311 | 40 | 82 | 1.0 | 2.0 | 0.00 | 0.00 | 0.00 | 83 | 1011.9 |
| 20260504050209 | 39 | 233 | 0.0 | 0.0 | 0.00 | 0.00 | 0.00 | 80 | 1013.6 |
| 20260504045808 | 40 | 98 | 0.0 | 1.0 | 0.00 | 0.00 | 0.00 | 82 | 1011.9 |
| 20260504045708 | 39 | 233 | 0.0 | 0.0 | 0.00 | 0.00 | 0.00 | 81 | 1013.6 |
| 20260504045450 | 39 | 233 | 0.0 | 0.0 | 0.00 | 0.00 | 0.00 | 80 | 1013.7 |
| 20260504045304 | 39 | 71 | 0.0 | 2.0 | 0.00 | 0.00 | 0.00 | 85 | 1012.1 |
| 20260504044800 | 39 | 66 | 0.0 | 2.0 | 0.00 | 0.00 | 0.00 | 86 | 1011.9 |
| 20260504044707 | 39 | 233 | 0.0 | 0.0 | 0.00 | 0.00 | 0.00 | 80 | 1013.7 |
| 20260504044258 | 39 | 90 | 1.0 | 2.0 | 0.00 | 0.00 | 0.00 | 86 | 1012.0 |
| 20260504044207 | 39 | 233 | 0.0 | 0.0 | 0.00 | 0.00 | 0.00 | 80 | 1013.6 |
| 20260504043755 | 39 | 82 | 0.0 | 2.0 | 0.00 | 0.00 | 0.00 | 86 | 1012.1 |
| 20260504043706 | 39 | 233 | 0.0 | 0.0 | 0.00 | 0.00 | 0.00 | 80 | 1013.7 |
| 20260504043251 | 39 | 90 | 2.0 | 2.0 | 0.00 | 0.00 | 0.00 | 85 | 1012.0 |
| 20260504043207 | 39 | 233 | 0.0 | 0.0 | 0.00 | 0.00 | 0.00 | 79 | 1013.6 |
| 20260504042749 | 39 | 90 | 1.0 | 2.0 | 0.00 | 0.00 | 0.00 | 85 | 1011.7 |
| 20260504042652 | 39 | 233 | 0.0 | 0.0 | 0.00 | 0.00 | 0.00 | 79 | 1013.5 |
| 20260504042434 | 40 | 233 | 0.0 | 0.0 | 0.00 | 0.00 | 0.00 | 80 | 1013.5 |
| 20260504042245 | 39 | 84 | 0.0 | 1.0 | 0.00 | 0.00 | 0.00 | 87 | 1012.0 |
| 20260504041741 | 39 | 75 | 1.0 | 2.0 | 0.00 | 0.00 | 0.00 | 87 | 1011.7 |
| 20260504041651 | 40 | 233 | 0.0 | 0.0 | 0.00 | 0.00 | 0.00 | 80 | 1013.4 |
| 20260504041238 | 39 | 95 | 2.0 | 3.0 | 0.00 | 0.00 | 0.00 | 86 | 1011.8 |
| 20260504041152 | 40 | 233 | 0.0 | 0.0 | 0.00 | 0.00 | 0.00 | 80 | 1013.4 |
| 20260504040734 | 39 | 119 | 2.0 | 2.0 | 0.00 | 0.00 | 0.00 | 85 | 1011.7 |
| 20260504040700 | 40 | 233 | 0.0 | 0.0 | 0.00 | 0.00 | 0.00 | 78 | 1013.3 |
| 20260504040232 | 39 | 84 | 1.0 | 2.0 | 0.00 | 0.00 | 0.00 | 85 | 1011.6 |
| 20260504040200 | 40 | 233 | 0.0 | 0.0 | 0.00 | 0.00 | 0.00 | 79 | 1013.3 |
| 20260504035727 | 40 | 66 | 1.0 | 2.0 | 0.00 | 0.00 | 0.00 | 86 | 1011.8 |
| 20260504035645 | 40 | 233 | 0.0 | 0.0 | 0.00 | 0.00 | 0.00 | 78 | 1013.4 |
| 20260504035225 | 40 | 90 | 2.0 | 3.0 | 0.00 | 0.00 | 0.00 | 86 | 1011.7 |
| 20260504035142 | 40 | 233 | 0.0 | 0.0 | 0.00 | 0.00 | 0.00 | 79 | 1013.3 |
| 20260504034723 | 40 | 115 | 2.0 | 3.0 | 0.00 | 0.00 | 0.00 | 84 | 1011.7 |
| 20260504034718 | 40 | 233 | 0.0 | 0.0 | 0.00 | 0.00 | 0.00 | 76 | 1013.2 |
| 20260504034706 | 40 | 233 | 0.0 | 0.0 | 0.00 | 0.00 | 0.00 | 77 | 1013.2 |
| 20260504034219 | 40 | 84 | 1.0 | 2.0 | 0.00 | 0.00 | 0.00 | 83 | 1011.7 |
| 20260504033717 | 40 | 90 | 1.0 | 2.0 | 0.00 | 0.00 | 0.00 | 82 | 1011.6 |
| 20260504033637 | 41 | 233 | 0.0 | 0.0 | 0.00 | 0.00 | 0.00 | 75 | 1013.2 |
| 20260504033214 | 40 | 60 | 1.0 | 2.0 | 0.00 | 0.00 | 0.00 | 82 | 1011.6 |
| 20260504033139 | 41 | 233 | 0.0 | 0.0 | 0.00 | 0.00 | 0.00 | 75 | 1013.2 |
| 20260504032711 | 40 | 54 | 0.0 | 2.0 | 0.00 | 0.00 | 0.00 | 84 | 1011.5 |
| 20260504032639 | 41 | 233 | 0.0 | 0.0 | 0.00 | 0.00 | 0.00 | 75 | 1013.2 |
| 20260504032208 | 40 | 105 | 0.0 | 2.0 | 0.00 | 0.00 | 0.00 | 82 | 1011.4 |
| 20260504032139 | 41 | 233 | 0.0 | 0.0 | 0.00 | 0.00 | 0.00 | 76 | 1013.1 |
| 20260504031705 | 41 | 102 | 1.0 | 2.0 | 0.00 | 0.00 | 0.00 | 82 | 1011.3 |
| 20260504031633 | 41 | 233 | 0.0 | 0.0 | 0.00 | 0.00 | 0.00 | 75 | 1013.0 |
| 20260504031202 | 41 | 90 | 1.0 | 1.0 | 0.00 | 0.00 | 0.00 | 80 | 1011.4 |
| 20260504031115 | 41 | 233 | 0.0 | 0.0 | 0.00 | 0.00 | 0.00 | 73 | 1013.1 |
| 20260504030658 | 41 | 98 | 0.0 | 1.0 | 0.00 | 0.00 | 0.00 | 81 | 1011.5 |
| 20260504030610 | 42 | 233 | 0.0 | 0.0 | 0.00 | 0.00 | 0.00 | 74 | 1013.1 |
| 20260504030345 | 42 | 233 | 0.0 | 0.0 | 0.00 | 0.00 | 0.00 | 74 | 1013.1 |
| 20260504030155 | 41 | 45 | 2.0 | 2.0 | 0.00 | 0.00 | 0.00 | 83 | 1011.4 |
| 20260504025652 | 41 | 75 | 1.0 | 2.0 | 0.00 | 0.00 | 0.00 | 83 | 1011.4 |
| 20260504025554 | 42 | 233 | 0.0 | 0.0 | 0.00 | 0.00 | 0.00 | 74 | 1013.0 |
| 20260504025148 | 41 | 90 | 1.0 | 2.0 | 0.00 | 0.00 | 0.00 | 81 | 1011.3 |
| 20260504025109 | 42 | 233 | 0.0 | 0.0 | 0.00 | 0.00 | 0.00 | 72 | 1013.0 |
| 20260504025057 | 42 | 233 | 0.0 | 0.0 | 0.00 | 0.00 | 0.00 | 75 | 1013.0 |
| 20260504024646 | 41 | 110 | 2.0 | 2.0 | 0.00 | 0.00 | 0.00 | 79 | 1011.4 |
| 20260504024142 | 42 | 96 | 2.0 | 2.0 | 0.00 | 0.00 | 0.00 | 80 | 1011.2 |
| 20260504024020 | 43 | 233 | 0.0 | 0.0 | 0.00 | 0.00 | 0.00 | 73 | 1013.0 |
| 20260504023639 | 42 | 90 | 2.0 | 2.0 | 0.00 | 0.00 | 0.00 | 80 | 1011.2 |
| 20260504023505 | 43 | 233 | 0.0 | 0.0 | 0.00 | 0.00 | 0.00 | 73 | 1013.0 |
| 20260504023135 | 42 | 70 | 2.0 | 2.0 | 0.00 | 0.00 | 0.00 | 80 | 1011.4 |
| 20260504023004 | 43 | 233 | 0.0 | 0.0 | 0.00 | 0.00 | 0.00 | 71 | 1013.0 |
| 20260504022748 | 44 | 233 | 0.0 | 0.0 | 0.00 | 0.00 | 0.00 | 73 | 1013.1 |
| 20260504022632 | 42 | 90 | 0.0 | 3.0 | 0.00 | 0.00 | 0.00 | 80 | 1011.4 |